Tracking 22836 objects as of 16-Apr-2021
HD Live streaming from Space Station
objects crossing your sky now

XTAR-EUR

Track XTAR-EUR now!
XTAR-EUR is classified as:


NORAD ID: 28542
Int'l Code: 2005-005A
Perigee: 35,780.6 km
Apogee: 35,804.2 km
Inclination: 0.0 °
Period: 1,436.0 minutes
Semi major axis: 42163 km
RCS: 6.3095 m2 (large)
Launch date: February 12, 2005
Source: United States (US)
Launch site: FRENCH GUIANA (FRGUI)

X-band; designed to be compatible with U.S. and NATO SATCOM systems.
aabbcc
Your satellite tracking list
Your tracking list is empty




NASA's NSSDC Master Catalog

Two Line Element Set (TLE):
1 28542U 05005A   21104.35633820  .00000152  00000-0  00000+0 0  9996
2 28542   0.0284 105.3675 0002803 259.6242 355.0125  1.00276660 59235
Source of the keplerian elements: AFSPC